Milton, FL

10:17 PM CST on December 17, 2017 (GMT -0600)
Whiting Field Naval Air Station (South)

Weather History for KNDZ - May, 2014

Change the Weather History Date:

Wednesday, May 21, 2014

  Actual Average (KNSE) Record (KNSE)
Temperature  
Mean Temperature 74 °F -  
Max Temperature 87 °F 83 °F 95 °F (2012)
Min Temperature 63 °F 63 °F 53 °F (2002)
Cooling Degree Days 10    
Growing Degree Days 24 (Base 50)    
Moisture  
Dew Point 66 °F    
Average Humidity 77    
Maximum Humidity 97    
Minimum Humidity 46    
Precipitation  
Precipitation 0.00 in - - ()
Sea Level Pressure  
Sea Level Pressure 30.14 in    
Wind  
Wind Speed 2 mph (South)    
Max Wind Speed 10 mph    
Max Gust Speed 16 mph    
Visibility 6 miles    
Events Fog    
Averages and records for this station are not official NWS values.
T = Trace of Precipitation, MM = Missing Value Source: NWS Daily Summary

Daily Weather History Graph

Daily Weather History Graph

Search for Another Location

Airport or City:

Trip Planner

Search our weather history database for the weather conditions in past years. The results will help you decide how hot, cold, wet, or windy it might be!

Date:

Astronomy

May. 21, 2014 Rise Set
Actual Time 5:49 AM CDT 7:39 PM CDT
Civil Twilight 5:23 AM CDT 8:06 PM CDT
Nautical Twilight 4:50 AM CDT 8:38 PM CDT
Astronomical Twilight 4:16 AM CDT 9:13 PM CDT
Moon 1:01 AM CDT (5/21) 12:49 PM CDT (5/21)
Length of Visible Light 14h 43m
Length of Day
13h 49m
Waning Gibbous, 48% of the Moon is Illuminated
May 21
Waning Gibbous
May 28
New
Jun 5
First Quarter
Jun 12
Full
Jun 19
Last Quarter

Hourly Weather History & Observations

Time (CDT) Temp. Heat Index Dew Point Humidity Pressure Visibility Wind Dir Wind Speed Gust Speed Precip Events Conditions
12:56 AM 66.9 °F - 64.9 °F 93% 30.12 in 8.0 mi Calm Calm - N/A   Clear
1:10 AM 68.0 °F - 66.0 °F 93% 30.16 in 0.5 mi Calm Calm - N/A Fog Fog
1:56 AM 66.0 °F - 64.9 °F 96% 30.11 in 0.2 mi Calm Calm - N/A Fog Fog
2:56 AM 64.0 °F - 63.0 °F 96% 30.10 in 0.2 mi Calm Calm - N/A Fog Fog
3:56 AM 63.0 °F - 62.1 °F 97% 30.12 in 0.5 mi Calm Calm - N/A Fog Fog
4:04 AM 63.0 °F - 62.1 °F 97% 30.16 in 0.2 mi Calm Calm - N/A Fog Fog
4:56 AM 66.9 °F - 66.0 °F 97% 30.12 in 0.5 mi Calm Calm - N/A Fog Fog
5:56 AM 66.0 °F - 64.9 °F 96% 30.13 in 0.2 mi Calm Calm - N/A Fog Fog
6:56 AM 68.0 °F - 66.9 °F 96% 30.14 in 0.2 mi Calm Calm - N/A Fog Fog
7:56 AM 71.1 °F - 70.0 °F 96% 30.16 in 0.2 mi Calm Calm - N/A Fog Fog
8:28 AM 73.0 °F - 71.1 °F 93% 30.21 in 1.5 mi Calm Calm - N/A   Mostly Cloudy
8:39 AM 73.9 °F - 71.1 °F 91% 30.22 in 3.0 mi Calm Calm - N/A   Mostly Cloudy
8:56 AM 75.9 °F - 72.0 °F 87% 30.18 in 6.0 mi Calm Calm - N/A   Mostly Cloudy
9:05 AM 77.0 °F - 72.0 °F 84% 30.22 in 6.0 mi Calm Calm - N/A   Haze
9:11 AM 78.1 °F - 71.1 °F 79% 30.22 in 8.0 mi Calm Calm - N/A   Mostly Cloudy
9:56 AM 81.0 °F 84.1 °F 69.1 °F 67% 30.18 in 10.0 mi ENE 4.6 mph - N/A   Scattered Clouds
10:56 AM 84.0 °F 84.9 °F 63.0 °F 49% 30.18 in 10.0 mi SSE 9.2 mph - N/A   Partly Cloudy
11:56 AM 84.9 °F 85.4 °F 62.1 °F 46% 30.18 in 10.0 mi SSE 9.2 mph 16.1 mph N/A   Partly Cloudy
12:56 PM 86.0 °F 87.3 °F 64.0 °F 48% 30.17 in 10.0 mi Variable 5.8 mph - N/A   Partly Cloudy
1:56 PM 86.0 °F 86.8 °F 63.0 °F 46% 30.16 in 10.0 mi SSW 8.1 mph - N/A   Partly Cloudy
2:56 PM 86.0 °F 87.6 °F 64.9 °F 49% 30.14 in 10.0 mi South 10.4 mph 16.1 mph N/A   Partly Cloudy
3:56 PM 84.9 °F 85.4 °F 62.1 °F 46% 30.12 in 10.0 mi Variable 4.6 mph - N/A   Partly Cloudy
4:56 PM 84.0 °F 84.5 °F 62.1 °F 47% 30.12 in 10.0 mi SW 5.8 mph - N/A   Partly Cloudy
5:56 PM 82.9 °F 84.4 °F 64.0 °F 53% 30.11 in 10.0 mi South 10.4 mph - N/A   Partly Cloudy
6:56 PM 80.1 °F 82.1 °F 66.0 °F 62% 30.11 in 10.0 mi SSW 5.8 mph - N/A   Scattered Clouds
7:56 PM 73.9 °F - 66.0 °F 76% 30.11 in 10.0 mi South 3.5 mph - N/A   Partly Cloudy
8:56 PM 73.0 °F - 66.9 °F 81% 30.10 in 10.0 mi SSW 3.5 mph - N/A   Clear
9:56 PM 72.0 °F - 66.0 °F 81% 30.10 in 10.0 mi Calm Calm - N/A   Clear
10:56 PM 71.1 °F - 66.0 °F 84% 30.10 in 10.0 mi Calm Calm - N/A   Clear
11:56 PM 70.0 °F - 66.0 °F 87% 30.09 in 10.0 mi Calm Calm - N/A   Clear